User: anonymous   Login
Location: Vancouver
(49.2500°N, 123.1330°W)
Time: 01:41:44
(UTC-07:00)
Language:

Cosmos 676 Rocket - Orbit

View from above orbital plane
View from above orbital plane
View from above satellite
View from above satellite

Ground track
Ground track

The orbit data is extracted from the following two-line orbital elements,

1 07434U 74071B   16270.23367198  .00000075  00000-0  34306-4 0  9994
2 07434  74.0486 338.7526 0021709 312.5644  47.3677 14.36591061198803
Epoch (UTC): 26 September 2016 05:36:29
Eccentricity: 0.0021709
inclination: 74.0486°
perigee height: 754 km
apogee height: 785 km
right ascension of ascending node: 338.7526°
argument of perigee: 312.5644°
revolutions per day: 14.36591061
mean anomaly at epoch: 47.3677°
orbit number at epoch: 19880

The dashed part of the orbit path shows where the satellite is in the earth's shadow,  

DLR